Tucson, AZ

3:00 AM MST on October 15, 2019 (GMT -0700)
Tucson International

Weather History for KTUS - August, 2019

Change the Weather History Date:

Saturday, August 31, 2019

  Actual Average Record
Temperature  
Mean Temperature 90 °F 85 °F  
Max Temperature 102 °F 97 °F 108 °F (1950)
Min Temperature 78 °F 72 °F 62 °F (1895)
Degree Days  
Heating Degree Days 0 0  
Month to date heating degree days 0 0  
Since 1 June heating degree days 0 0  
Since 1 July heating degree days 0 0  
Cooling Degree Days 25 20  
Month to date cooling degree days 759 631  
Year to date cooling degree days 2536 2410  
Since 1 June cooling degree days 2164 1908  
Growing Degree Days 40 (Base 50)    
Moisture  
Dew Point 60 °F    
Average Humidity 39    
Maximum Humidity 64    
Minimum Humidity 15    
Precipitation  
Precipitation 0.03 in 0.06 in 1.66 in (1957)
Month to date precipitation 1.57 2.39  
Year to date precipitation 7.67 7.91  
Sea Level Pressure  
Sea Level Pressure 29.85 in    
Wind  
Wind Speed 7 mph (SSE)    
Max Wind Speed 25 mph    
Max Gust Speed 36 mph    
Visibility 10 miles    
Events Rain , Thunderstorm    
T = Trace of Precipitation, MM = Missing Value Source: NWS Daily Summary

Daily Weather History Graph

Daily Weather History Graph

Search for Another Location

Airport or City:

Astronomy

Aug. 31, 2019 Rise Set
Actual Time 5:58 AM MST 6:49 PM MST
Civil Twilight 5:33 AM MST 7:14 PM MST
Nautical Twilight 5:03 AM MST 7:43 PM MST
Astronomical Twilight 4:33 AM MST 8:13 PM MST
Moon 7:16 AM MST (8/31) 8:08 PM MST (8/31)
Length of Visible Light 13h 41m
Length of Day
12h 51m
Waxing Crescent, 3% of the Moon is Illuminated
Aug 31
Waxing Crescent
Sep 5
First Quarter
Sep 13
Full
Sep 21
Last Quarter
Sep 28
New

Hourly Weather History & Observations

Time (MST) Temp. Heat Index Dew Point Humidity Pressure Visibility Wind Dir Wind Speed Gust Speed Precip Events Conditions
12:53 AM 84.9 °F 85.4 °F 62.1 °F 46% 29.83 in 10.0 mi SSW 12.7 mph - N/A   Clear
1:53 AM 84.0 °F 84.4 °F 61.0 °F 46% 29.83 in 10.0 mi SSW 13.8 mph - N/A   Clear
2:53 AM 84.0 °F 84.4 °F 61.0 °F 46% 29.83 in 10.0 mi SE 6.9 mph - N/A   Partly Cloudy
3:53 AM 82.0 °F 83.0 °F 62.1 °F 51% 29.84 in 10.0 mi SE 10.4 mph - N/A   Clear
4:53 AM 82.9 °F 83.2 °F 60.1 °F 46% 29.89 in 10.0 mi East 5.8 mph - N/A   Scattered Clouds
5:04 AM 82.9 °F 83.2 °F 60.1 °F 46% 30.04 in 10.0 mi SSE 3.5 mph - N/A Thunderstorm Scattered Clouds
5:25 AM 82.9 °F 83.7 °F 62.1 °F 49% 30.04 in 10.0 mi SSE 12.7 mph - N/A   Mostly Cloudy
5:53 AM 78.1 °F - 64.9 °F 64% 29.85 in 10.0 mi SW 8.1 mph - 0.03 in Rain Light Rain
6:53 AM 80.1 °F 81.9 °F 64.9 °F 60% 29.88 in 10.0 mi ESE 5.8 mph - 0.00 in   Partly Cloudy
7:53 AM 80.1 °F 82.1 °F 66.0 °F 62% 29.90 in 10.0 mi SE 5.8 mph - N/A   Clear
8:53 AM 86.0 °F 86.3 °F 62.1 °F 44% 29.90 in 10.0 mi SSE 5.8 mph - N/A   Clear
9:53 AM 89.1 °F 89.0 °F 61.0 °F 39% 29.90 in 10.0 mi Calm Calm - N/A   Clear
10:53 AM 93.0 °F 92.3 °F 59.0 °F 32% 29.88 in 10.0 mi Variable 5.8 mph - N/A   Clear
11:53 AM 93.9 °F 93.2 °F 59.0 °F 31% 29.86 in 10.0 mi Calm Calm - N/A   Clear
12:53 PM 96.1 °F 95.2 °F 57.9 °F 28% 29.83 in 10.0 mi Calm Calm - N/A   Clear
1:53 PM 100.0 °F 99.7 °F 57.9 °F 25% 29.80 in 10.0 mi North 5.8 mph - N/A   Clear
2:53 PM 100.0 °F 99.7 °F 57.9 °F 25% 29.76 in 10.0 mi North 5.8 mph - N/A   Clear
3:53 PM 100.0 °F 99.2 °F 57.0 °F 24% 29.74 in 10.0 mi West 8.1 mph - N/A   Clear
4:53 PM 100.0 °F 98.8 °F 55.9 °F 23% 29.72 in 10.0 mi WNW 9.2 mph 18.4 mph N/A   Clear
5:53 PM 99.0 °F 97.3 °F 55.0 °F 23% 29.73 in 10.0 mi West 5.8 mph - N/A   Clear
6:53 PM 97.0 °F 95.0 °F 55.0 °F 24% 29.75 in 10.0 mi NW 6.9 mph - N/A Thunderstorm Clear
7:04 PM 97.0 °F 95.0 °F 55.0 °F 24% 29.92 in 10.0 mi NNW 6.9 mph - N/A Thunderstorm Thunderstorm
7:23 PM 87.1 °F 87.8 °F 63.0 °F 44% 29.91 in 9.0 mi NE 8.1 mph - 0.00 in Rain , Thunderstorm Light Rain
7:42 PM 89.1 °F 91.0 °F 64.9 °F 45% 29.90 in 10.0 mi North 4.6 mph - 0.00 in   Partly Cloudy
7:53 PM 89.1 °F 91.3 °F 66.0 °F 46% 29.76 in 10.0 mi Calm Calm - 0.00 in   Clear
8:53 PM 90.0 °F 89.1 °F 59.0 °F 35% 29.78 in 10.0 mi South 9.2 mph - N/A   Clear
9:53 PM 88.0 °F 87.1 °F 59.0 °F 37% 29.82 in 10.0 mi SSW 15.0 mph - N/A   Clear
10:53 PM 84.9 °F 85.0 °F 61.0 °F 44% 29.83 in 10.0 mi SSE 13.8 mph - N/A   Clear
11:53 PM 81.0 °F 81.9 °F 62.1 °F 52% 29.85 in 10.0 mi ESE 5.8 mph - N/A   Clear